www.pogodaiklimat.ru

Погода и климат >> Архив погоды >> Россия >> Ставропольский край >> Рощино


ПОГОДА в Рощино

  • Прогноз погоды в Рощино
  • Монитор погоды в Рощино

АРХИВ ПОГОДЫ в Рощино

Время (UTC), дата Ветер
(напр.,м/с)
 
Видим.   Явления Облачность Т
(С)
Тd
(С)
f
(%)
Тe
(С)
Тes
(С)
Комфортность P
(гПа)
Po
(гПа)
Тmin
(С)
Tmax
(С)
R
(мм)
R24
(мм)
S
(см)
15 13.06 В 3 10 км 8/3 600 м
[Sc Ac As Ci fib]
+32.9 +4.4 17 +30 +31 жарко 1008.4 997.9 +35.4
18 13.06 ЮВ 1 10 км 10/10 600 м
[Sc]
+28.6 +7.0 26 +28 +28 жарко 1010.1 999.4
21 13.06 З 2 10 км 8/6 600 м
[Sc Ac trans]
+23.3 +14.6 58 +27 +27 душно 1011.4 1000.6
00 14.06 З 1 10 км 4/0
[Ac As]
+21.1 +14.0 64 +24 +24 комфорт 1011.7 1000.8
03 14.06 штиль 0 10 км 8/0
[Ac As Ci fib]
+21.0 +14.7 67 +24 +25 комфорт 1012.8 1001.9 +18.8
06 14.06 В 3 10 км 3/0
[Ci fib]
+28.8 +10.0 31 +29 +39 жарко 1013.5 1002.8
09 14.06 В 3 10 км 3/1 1000 м
[Cu med, cong Ac trans]
+33.3 +12.2 28 +34 +46 очень
жарко
1013.3 1002.8
12 14.06 В 5 10 км 4/3 1000 м
[Cu med, cong Ac trans]
+31.2 +15.5 39 +34 +38 душно 1013.4 1002.8
15 14.06 В 4
{12}
10 км 8/3 600 м
[Cb cap Ac trans]
+27.9 +15.1 46 +31 +31 душно 1014.8 1004.1 +34.2
18 14.06 В 3 10 км 9/4 600 м
[Sc diur, vesp Ac cast]
+23.1 +14.8 60 +27 +27 душно 1015.4 1004.5
21 14.06 В 2 10 км 10/3 600 м
[Sc diur, vesp Ac As]
+19.6 +14.2 71 +22 +22 комфорт 1015.8 1004.8
00 15.06 В 1 10 км 8/0
[Ac trans]
+17.7 +14.0 79 +19 +19 1014.8 1003.7
03 15.06 В 2 10 км ясно +19.0 +13.9 72 +21 +22 комфорт 1015.0 1004.0 +16.3
06 15.06 В 3 10 км ясно +26.2 +10.5 37 +27 +37 жарко 1014.8 1004.0
09 15.06 В 4 10 км 1/0
[Ci fib]
+30.4 +5.6 21 +29 +42 жарко 1012.9 1002.3
12 15.06 В 4 10 км 3/0
[Ac As Ci fib]
+32.6 +7.5 21 +31 +38 жарко 1011.2 1000.7
15 15.06 В 3 10 км ясно +30.7 +8.7 25 +30 +31 жарко 1010.5 999.9 +33.2
18 15.06 ЮВ 2 10 км 3/1 1000 м
[Sc Ac cast]
+24.0 +6.5 32 +24 +24 комфорт 1012.2 1001.4
21 15.06 В 2 10 км 3/0
[Ac As Ci fib]
+19.0 +8.8 52 +20 +20 1012.0 1001.0
00 16.06 В 1 10 км ясно +15.5 +10.4 72 +16 +16 1010.8 999.7
03 16.06 В 1 10 км 4/1 1000 м
[Sc Ac As Cc]
+18.7 +12.7 68 +21 +22 комфорт 1010.2 999.2 +14.5
06 16.06 В 1 10 км 1/0
[Ci fib]
+27.4 +13.5 42 +29 +43 жарко 1009.6 998.9
09 16.06 В 3 10 км ясно +33.1 +10.3 25 +33 +49 жарко 1008.2 997.7
12 16.06 В 3 10 км ясно +34.4 +5.1 16 +32 +42 жарко 1007.2 996.8
15 16.06 ЮВ 2 10 км 6/0
[Ac As Ci fib]
+33.2 +5.2 17 +31 +32 жарко 1008.0 997.5 +35.0
18 16.06 штиль 0 10 км 4/0
[Ci fib]
+25.8 +9.6 36 +26 +26 жарко 1008.6 997.8
21 16.06 штиль 0 10 км ясно +22.1 +4.3 31 +22 +22 комфорт 1007.1 996.3
00 17.06 ЮЗ 1 10 км ясно +20.1 +8.7 48 +22 +22 комфорт 1007.2 996.3
03 17.06 З 1 10 км ясно +22.2 +13.9 59 +25 +27 комфорт 1007.7 996.9 +19.3
06 17.06 В 2 10 км 3/0
[Ac trans Ci fib]
+29.9 +13.3 36 +31 +41 жарко 1008.2 997.6
09 17.06 С 1 10 км 8/0
[Ac cast Ci sp]
+35.1 +11.3 24 +35 +53 опасность
солнечного
удара
1007.3 996.9
12 17.06 СВ 2 10 км 9/8 600 м
[Cb cap Ac cast]
+34.8 +10.1 22 +34 +35 очень
жарко
1006.1 995.7
15 17.06 ЮЗ 2 10 км гроза без осадков {ливн. осадки} 10/10 600 м
[Cb cap]
+21.6 +16.2 71 +25 +25 комфорт 1009.6 998.7 +37.3 1
18 17.06 Ю 2 10 км {гроза, ливн. осадки} 10/10 600 м
[Cb cap]
+21.3 +16.0 72 +25 +25 комфорт 1010.4 999.5
21 17.06 ЮЗ 1 10 км 8/0
[Ac trans Ci fib]
+19.6 +16.4 82 +23 +23 комфорт 1010.2 999.2
00 18.06 штиль 0 10 км 4/0
[Ac trans Ci fib]
+17.1 +16.0 93 +17 +17 1010.3 999.2
03 18.06 Ю 1 10 км 1/0
[Ac trans]
+20.9 +16.6 76 +26 +27 душно 1011.1 1000.2 +17.1
06 18.06 ЮЗ 1 10 км ясно +28.5 +14.5 42 +31 +45 душно 1010.7 1000.1
09 18.06 СЗ 1 10 км 1/0
[Ac trans]
+32.7 +9.3 24 +32 +53 опасность
солнечного
удара
1009.9 999.4
12 18.06 Ю 2 10 км 3/3 1000 м
[Cu med, cong Ac trans]
+35.1 +7.8 19 +33 +42 жарко 1008.3 997.9
15 18.06 В 2 10 км 4/3 1000 м
[Cu hum Ac trans]
+33.7 +7.0 19 +32 +33 жарко 1008.0 996.5 +35.6
18 18.06 ЮВ 1 10 км 3/0
[Ac trans]
+27.8 +9.4 32 +28 +28 жарко 1009.4 998.7
21 18.06 штиль 0 10 км ясно +23.0 +10.4 45 +25 +25 комфорт 1009.5 998.7
00 19.06 штиль 0 10 км ясно +19.3 +11.7 61 +20 +20 1009.4 998.4
03 19.06 З 1 10 км ясно +21.8 +13.9 61 +25 +27 комфорт 1009.4 998.5 +18.0
06 19.06 В 2 10 км ясно +32.9 +7.8 21 +31 +44 жарко 1009.0 998.5
09 19.06 ЮВ 2 10 км 1/0
[Ac cast]
+35.8 +5.7 16 +33 +51 опасность
солнечного
удара
1008.3 997.9
12 19.06 В 3 10 км 4/1 1000 м
[Cu med, cong]
+36.9 +4.9 14 +34 +42 очень
жарко
1007.5 997.1
15 19.06 ЮВ 3 10 км 3/0
[Ac trans]
+34.4 +5.9 17 +32 +33 жарко 1007.3 996.9 +37.5
18 19.06 штиль 0 10 км ясно +27.8 +6.9 27 +27 +27 жарко 1008.8 998.1
21 19.06 штиль 0 10 км 1/0
[Ci fib]
+22.3 +8.8 42 +24 +24 комфорт 1008.4 997.5
00 20.06 штиль 0 10 км 3/0
[Ci fib]
+18.9 +10.1 57 +20 +20 1008.0 997.1
03 20.06 В 2 10 км 1/0
[Ci fib]
+21.4 +9.3 46 +23 +24 комфорт 1009.1 998.2 +17.8
06 20.06 В 2 10 км 8/0
[Ac cast Ci]
+32.3 +7.8 22 +31 +39 жарко 1008.8 998.3
09 20.06 В 2 10 км 8/3 600 м
[Sc Ac As Ci]
+35.7 +4.8 15 +33 +42 жарко 1007.9 997.5
12 20.06 В 4 10 км 9/4 600 м
[Sc Ac As Ci]
+34.6 +5.6 17 +32 +35 жарко 1006.9 996.5

 

Местоположение метеостанции Рощино (Ставропольский край, Россия): широта 44.15 долгота 45.20 высота над уровнем моря 94 м.

В архиве по умолчанию представлена погода в Рощино за последнюю неделю. Архивные данные за месяц целиком и за предыдущие месяцы, начиная с января 2011 года, Вы можете получить, выбрав интересующий диапазон дат из раскрывающегося списка и нажав кнопку "Ввод!".


*Определитесь, кто Вы:
робот инопланетянин человек

Внимание! Время в таблицах - всемирное. Для получения местного времени необходимо прибавить поправку, которая равна 3 ч.

Смотрите также архив погоды в соседних городах и на ближайших метеорологических станциях:

Погода в Терекли-Мектебе (Дагестан, Россия) (54 км)
Погода в Наурской (Чечня, Россия) (56 км)
Погода в Моздоке (Северная Осетия, Россия) (63 км)
Погода в Южно-Сухокумске (Дагестан, Россия) (66 км)
Погода в Прохладный (Кабардино-Балкария, Россия) (102 км)
Погода в Грозном (Чечня, Россия) (108 км)
Погода в Зеленокумске (Ставропольский край, Россия) (110 км)
Погода в Буденновске (Ставропольский край, Россия) (110 км)
Погода в Кочубее (Дагестан, Россия) (111 км)
Погода в Назрани (Ингушетия, Россия) (115 км)

Пояснения к столбцам:

Ветер - указаны скорость ветра в м/с - средняя за 10 мин, порывы в срок и между сроками (в фигурных скобках) и направление, откуда дует ветер: С - северный, СВ - северо-восточный, В - восточный, ЮВ - юго-восточный, Ю - южный, ЮЗ - юго-западный, З - западный, СЗ - северо-западный.
Видимость - горизонтальная дальность видимости в метрах или километрах. При видимости от 1 до 10 км при отсутствии осадков обычно наблюдается дымка, при ухудшении видимости до 1 км и менее - туман. В сухую погоду видимость может ухудшаться дымом, пылью или мглою.
Явления - указаны атмосферные явления, наблюдавшиеся в срок или в последний час перед сроком; фигурными скобками обозначены явления, наблюдавшиеся между сроками (за 1-3 часа до срока); квадратными скобками обозначены град или гололедные отложения с указанием их диаметра в мм.
Облачность - указаны через наклонную черту общая и нижняя облачность в баллах и высота нижней границы облаков в метрах; квадратными скобками обозначены формы облаков: Ci - перистые, Cs - перисто-слоистые, Cc - перисто-кучевые, Ac - высококучевые, As - высокослоистые, Sc - слоисто-кучевые, Ns - слоисто-дождевые, Cu - кучевые, Cb - кучево-дождевые. Подробнее классификацию облаков см. в Атласе облаков (PDF).
T - Температура воздуха - температура, измеренная на высоте 2 м над землей.
Td - Температура точки росы - температура, при понижении до которой содержащийся в воздухе водяной пар достигнет насыщения.
f - Относительная влажность воздуха - влажноcть воздуха, измеренная на высоте 2 м над землей.
Te - Эффективная температура - температура, которую ощущает одетый по сезону человек в тени. Характеристика душности погоды. При расчете учитывается влияние влажности воздуха и скорости ветра на теплоощущения человека.
Tes - Эффективная температура на солнце - температура, которую ощущает человек, с поправкой на солнечный нагрев. Характеристика знойности погоды. Зависит от высоты солнца над горизонтом, облачности и скорости ветра. Ночью, в пасмурную погоду, а также при ветре 12 м/с и более поправка равна нулю.
P - Атмосферное давление - приведенное к уровню моря атмосферное давление.
Po - Атмосферное давление - измеренное на уровне метеостанции атмосферное давление.
Tmin - Минимальная температура - минимум температуры воздуха на высоте 2 м над землей.
Tmax - Максимальная температура - максимум температуры воздуха на высоте 2 м над землей.
R - Количество осадков - Количество выпавших осадков за период времени, мм. При наведении курсора мыши на число - период времени, за который выпало указанное количество осадков.
R24 - Количество осадков - Количество выпавших осадков за 24 часа, мм.
S - Снежный покров - Высота снежного покрова, см. При наведении курсора мыши на число - состояние снежного покрова и степень покрытия местности в баллах.